Wind_Speed
33 34 34 35 36 36 36 36 36 36 36 37 37 37 37 37 37 37 37 36 36 35 34 34 33 32 32 31 31 31 31 31 30 29 29 28 28 28 27 27 27 26 26
34 35 35 36 36 37 38 38 38 38 39 39 39 39 39 39 38 38 39 38 38 37 37 36 35 35 34 34 33 33 33 32 32 31 31 31 30 30 30 29 29 29 29
36 36 37 37 38 38 38 39 38 39 40 40 40 41 41 41 41 40 40 41 40 39 39 39 38 38 37 36 35 35 35 34 34 33 33 33 32 32 32 32 31 30 30
38 38 38 39 39 39 39 40 39 40 40 41 41 41 42 42 42 42 42 42 42 41 41 41 41 40 40 39 38 37 36 36 36 35 35 35 34 34 34 34 33 32 32
40 40 40 40 40 40 40 40 41 41 41 41 42 42 42 43 43 43 44 44 44 44 44 43 43 43 42 41 40 39 38 38 37 37 37 36 36 36 36 36 35 34 34
41 41 41 41 41 41 41 41 42 43 43 43 43 43 44 44 45 45 45 46 46 46 45 45 45 44 44 43 42 41 41 40 40 39 39 38 38 38 38 38 38 37 36
43 43 43 43 43 43 43 43 43 43 44 45 44 45 45 46 46 46 47 47 48 47 47 47 46 46 45 44 44 43 42 43 42 42 42 41 40 40 40 40 40 39 39
44 45 45 45 45 45 45 45 45 45 45 45 46 46 47 46 47 47 48 48 49 49 49 49 48 48 47 46 46 46 45 45 44 44 44 43 42 41 42 41 41 42 41
47 47 46 46 47 47 47 47 46 46 46 46 47 47 47 47 47 48 49 49 50 50 51 51 50 49 48 48 47 47 46 46 46 46 46 45 44 44 44 43 44 44 43
48 47 47 47 47 48 47 47 47 47 47 47 47 47 47 48 48 48 49 50 50 51 52 52 51 50 50 49 48 48 47 48 48 49 49 48 47 46 46 46 46 46 45
49 49 49 48 48 48 48 48 48 48 48 47 47 47 48 48 48 49 49 49 50 51 52 53 52 51 51 50 49 49 48 49 49 49 50 51 50 49 49 48 47 47 46
50 50 51 50 50 50 49 49 49 50 50 49 49 48 48 49 49 49 49 49 50 50 51 52 53 52 52 52 51 50 50 50 51 52 52 52 52 51 51 50 49 48 48
50 51 52 51 51 51 51 51 50 51 51 51 51 50 49 50 50 50 50 49 49 49 50 51 52 52 52 53 53 52 52 52 52 52 52 52 52 51 51 50 50 49 50
51 51 52 52 51 51 52 52 52 52 52 52 51 51 51 51 51 51 51 50 50 49 49 51 52 52 52 52 53 54 53 53 52 51 52 52 52 51 50 51 51 50 50
52 51 51 51 52 53 53 53 52 52 52 51 51 51 51 52 51 50 51 51 50 50 50 50 51 52 53 52 53 54 55 54 53 51 52 52 53 52 51 52 52 52 52
54 53 52 51 51 52 53 53 53 52 51 52 52 51 51 52 52 51 51 51 50 50 50 50 51 52 52 52 52 53 54 54 53 52 52 53 53 52 52 51 52 52 52
54 54 54 52 51 51 51 52 52 52 52 52 53 53 52 52 52 52 52 52 51 51 51 51 52 52 53 52 53 53 54 53 52 52 52 52 52 52 52 52 51 51 51
54 54 54 54 53 52 52 51 52 53 52 52 52 53 53 53 53 53 53 53 52 52 52 52 52 53 54 53 53 54 54 53 53 52 52 52 51 52 52 52 51 51 51
54 54 54 53 53 54 54 53 53 52 51 51 52 52 52 53 53 53 53 53 53 53 53 53 53 53 54 55 54 54 53 53 53 52 51 52 53 53 53 54 54 53 53
54 54 54 54 54 54 53 52 52 52 52 52 52 53 53 52 53 53 53 52 53 52 53 53 53 53 54 54 54 54 53 53 53 52 53 53 53 53 53 54 55 55 55
53 54 54 54 54 54 54 54 53 52 52 52 52 53 53 53 53 53 53 53 53 52 52 52 53 53 53 53 54 55 55 54 54 53 53 53 53 53 53 53 54 54 55
53 54 54 53 53 53 53 54 54 53 52 52 52 52 53 53 53 53 53 53 53 52 53 53 53 53 52 53 54 55 56 55 54 54 54 54 53 53 54 54 54 54 54
52 53 53 52 52 52 53 53 54 54 53 53 52 52 52 52 53 53 53 53 53 53 53 54 54 54 55 54 55 55 56 55 54 54 55 54 54 54 54 54 54 54 54
51 51 51 51 52 52 53 53 54 54 53 52 52 52 52 51 51 52 52 52 53 54 54 55 55 55 56 56 56 57 58 57 56 56 57 56 56 55 54 54 54 55 55
51 51 51 51 52 52 53 54 54 54 53 53 52 53 52 51 51 52 53 53 54 54 55 56 56 55 55 56 57 57 58 58 57 58 58 58 57 57 56 56 56 56 56
50 50 51 52 52 53 53 53 53 53 53 53 53 53 54 53 52 52 53 54 55 55 55 56 56 56 56 57 57 58 59 59 59 59 59 59 59 59 58 58 58 58 57
Wind_Direction
261 262 262 261 260 260 261 261 261 262 262 261 261 261 260 260 260 259 258 258 257 256 256 256 255 256 255 256 257 258 258 258 259 258 258 258 259 259 260 261 261 262 264
263 264 263 262 262 262 263 264 263 262 262 262 262 262 261 260 260 259 258 257 256 256 256 255 255 256 256 256 257 258 258 258 257 257 257 258 258 258 259 260 261 262 264
263 264 264 263 263 263 263 265 264 263 263 263 263 263 262 261 259 259 258 257 257 257 256 256 255 256 256 257 256 257 257 257 257 257 256 257 258 258 259 260 260 262 263
264 264 263 263 263 263 264 265 264 264 264 264 263 263 263 262 261 260 259 258 257 257 257 256 256 256 257 257 257 257 256 256 257 257 256 257 258 259 259 260 260 262 263
263 263 263 263 263 263 264 264 264 264 264 264 264 264 263 263 262 261 260 258 257 257 257 257 256 256 257 257 257 257 256 257 257 257 257 257 258 259 260 260 260 261 262
264 265 264 263 263 263 264 264 264 264 265 265 265 265 264 263 262 261 261 259 258 257 257 257 257 256 256 257 257 257 258 256 257 257 257 257 258 259 260 261 261 261 261
264 265 265 265 264 264 264 263 263 265 266 266 265 265 265 264 263 262 261 260 258 257 257 257 257 256 256 256 256 256 257 257 256 257 257 257 258 259 260 261 261 261 261
265 266 266 265 264 263 264 264 264 265 266 267 266 266 265 264 263 262 261 260 258 257 256 256 256 256 256 256 256 255 256 257 257 257 257 257 258 259 260 260 261 261 261
264 265 266 265 263 263 263 264 264 266 266 266 266 266 265 264 263 263 262 260 258 256 256 255 255 255 255 255 255 255 256 256 256 257 257 257 258 259 260 260 260 260 261
264 265 265 265 264 263 263 263 264 265 266 266 266 267 267 266 264 262 261 261 259 257 255 255 254 254 254 254 254 254 256 257 257 257 257 257 258 259 259 260 260 260 261
263 265 265 265 265 264 264 265 265 266 266 266 266 267 267 266 265 263 262 261 259 257 255 254 253 253 253 253 254 255 255 256 257 258 258 258 258 258 259 259 260 260 260
263 264 265 265 265 264 265 265 267 267 267 267 266 267 267 266 265 264 262 261 259 257 255 254 253 253 253 254 254 255 255 256 257 258 259 259 259 259 259 258 259 259 260
263 264 265 265 265 266 266 266 267 267 268 267 266 266 266 265 264 263 262 260 258 256 255 254 254 253 253 255 255 255 256 256 257 257 259 259 258 258 258 258 259 259 259
264 264 264 265 266 266 267 267 267 267 267 267 266 266 265 265 264 263 261 259 258 256 255 254 254 253 253 255 255 255 256 255 256 256 257 258 257 257 258 259 259 260 260
264 264 264 265 265 266 266 266 267 267 267 266 266 266 265 264 263 263 261 260 258 256 255 254 254 253 253 253 255 254 255 256 257 256 257 257 258 257 258 259 260 260 261
264 264 264 264 266 267 267 266 266 266 266 265 265 265 265 264 263 262 261 260 258 256 256 256 255 254 253 253 253 254 255 256 257 257 257 257 257 258 259 260 260 260 260
265 265 264 264 265 266 267 266 265 265 265 265 265 265 264 264 262 262 261 260 258 257 257 256 255 255 254 254 253 254 255 255 256 257 257 258 258 259 260 261 261 261 260
264 265 264 264 265 265 266 266 266 266 265 265 265 265 264 263 263 262 261 260 258 257 257 257 256 255 254 253 254 254 254 255 255 256 256 258 260 261 261 262 262 261 260
265 264 264 264 264 265 265 266 266 264 264 264 264 264 264 263 263 263 261 259 258 257 257 256 256 256 254 253 253 253 254 255 256 257 258 259 260 261 262 263 263 263 262
266 264 264 264 264 264 265 265 265 264 263 263 263 263 263 263 263 262 261 259 258 256 256 256 255 255 255 255 254 253 255 257 257 258 259 260 261 262 264 264 264 263 263
267 265 265 265 265 265 264 264 264 264 264 263 263 263 262 263 262 262 261 259 258 256 255 255 255 256 256 256 255 255 256 256 257 258 260 261 262 262 263 265 265 265 265
268 267 266 265 265 264 264 265 265 264 265 265 264 264 263 262 262 261 261 260 258 257 256 256 255 255 256 257 256 256 257 257 258 258 259 261 262 263 264 264 265 265 265
269 268 266 265 265 265 265 264 265 265 265 266 265 264 263 262 262 261 261 259 258 257 257 256 256 257 257 257 257 257 258 258 259 260 260 262 263 264 264 265 265 265 266
268 268 266 265 265 266 266 265 266 265 265 265 265 264 264 263 262 261 260 260 259 259 258 258 257 258 257 257 258 258 258 259 260 260 261 262 263 263 264 265 265 266 267
269 267 266 265 266 266 267 266 266 266 265 265 264 264 263 263 263 262 261 261 261 260 260 259 258 258 258 257 258 258 257 258 259 261 262 262 262 263 264 264 265 266 267
269 268 266 265 266 266 267 267 267 266 266 265 265 264 264 263 263 263 262 262 262 261 260 259 259 259 259 259 259 259 259 258 259 261 261 262 262 262 263 263 264 265 266
Height
5791 5791 5791 5791 5792 5792 5793 5793 5794 5795 5795 5796 5797 5797 5798 5799 5800 5801 5802 5804 5805 5807 5808 5809 5811 5812 5813 5814 5815 5816 5816 5817 5818 5818 5819 5820 5820 5821 5821 5822 5822 5822 5823
5782 5783 5783 5783 5783 5784 5784 5785 5785 5786 5786 5787 5787 5788 5789 5790 5791 5792 5793 5795 5796 5798 5800 5801 5803 5804 5805 5806 5807 5808 5809 5810 5810 5811 5812 5813 5813 5814 5814 5815 5816 5816 5816
5773 5773 5774 5774 5774 5774 5775 5775 5776 5776 5776 5777 5777 5778 5778 5779 5780 5782 5783 5785 5787 5788 5790 5792 5794 5795 5797 5798 5799 5800 5801 5802 5803 5804 5804 5805 5806 5807 5807 5808 5809 5809 5810
5764 5764 5764 5764 5765 5765 5765 5765 5766 5766 5766 5767 5767 5767 5768 5768 5769 5771 5772 5774 5776 5778 5780 5782 5784 5786 5787 5789 5790 5791 5792 5793 5794 5795 5796 5797 5798 5799 5800 5800 5801 5802 5802
5754 5754 5754 5754 5754 5755 5755 5755 5755 5755 5756 5756 5756 5757 5757 5757 5758 5759 5761 5763 5765 5767 5769 5771 5773 5775 5777 5779 5780 5781 5783 5784 5785 5786 5788 5789 5790 5791 5791 5792 5793 5794 5794
5744 5744 5744 5744 5744 5744 5744 5745 5745 5745 5745 5745 5745 5745 5746 5746 5746 5747 5749 5751 5753 5755 5758 5760 5762 5765 5766 5768 5770 5772 5773 5774 5776 5777 5778 5779 5780 5782 5783 5783 5784 5785 5786
5733 5733 5733 5733 5733 5733 5733 5734 5734 5734 5734 5733 5733 5734 5734 5734 5734 5736 5737 5738 5741 5743 5746 5748 5751 5753 5755 5757 5759 5761 5763 5764 5765 5767 5768 5769 5771 5772 5773 5774 5775 5776 5777
5722 5722 5722 5722 5722 5722 5722 5723 5723 5722 5722 5721 5721 5721 5722 5722 5722 5723 5724 5726 5728 5730 5733 5736 5738 5741 5743 5746 5748 5750 5752 5753 5754 5756 5757 5759 5760 5761 5763 5764 5765 5766 5767
5711 5711 5711 5710 5710 5710 5711 5711 5711 5711 5710 5710 5709 5709 5709 5709 5710 5711 5711 5713 5715 5717 5720 5723 5725 5728 5731 5734 5736 5738 5740 5740 5742 5744 5746 5747 5749 5750 5752 5753 5754 5755 5756
5698 5698 5698 5698 5698 5698 5698 5698 5699 5698 5698 5697 5696 5696 5696 5696 5697 5698 5699 5700 5701 5703 5706 5709 5712 5715 5718 5721 5723 5726 5727 5728 5730 5732 5733 5735 5737 5738 5740 5741 5742 5743 5745
5685 5685 5686 5685 5686 5686 5686 5686 5686 5685 5685 5684 5684 5684 5683 5683 5683 5685 5686 5687 5688 5690 5692 5695 5698 5701 5704 5707 5710 5712 5714 5715 5717 5719 5720 5722 5724 5725 5727 5728 5730 5731 5732
5672 5672 5672 5672 5673 5673 5673 5673 5673 5672 5672 5671 5671 5671 5670 5670 5671 5671 5672 5673 5674 5676 5678 5682 5685 5688 5690 5693 5696 5699 5700 5701 5703 5705 5707 5708 5710 5711 5713 5714 5716 5717 5719
5659 5659 5659 5659 5659 5659 5659 5659 5659 5659 5658 5658 5658 5657 5657 5657 5657 5657 5658 5660 5661 5663 5665 5668 5671 5674 5677 5679 5682 5685 5686 5687 5689 5691 5693 5694 5696 5697 5698 5700 5702 5703 5705
5644 5644 5645 5645 5645 5645 5645 5645 5645 5645 5644 5644 5644 5643 5643 5643 5643 5643 5644 5646 5648 5650 5653 5655 5658 5660 5663 5665 5667 5670 5671 5672 5674 5676 5678 5680 5681 5683 5684 5685 5687 5688 5690
5630 5630 5630 5631 5631 5631 5631 5631 5631 5631 5630 5630 5629 5629 5629 5629 5629 5630 5631 5632 5634 5637 5640 5642 5645 5647 5649 5651 5653 5655 5657 5658 5661 5662 5664 5666 5667 5668 5670 5671 5673 5674 5676
5615 5615 5616 5616 5616 5616 5616 5616 5616 5616 5615 5615 5615 5615 5615 5616 5616 5617 5617 5619 5620 5623 5625 5629 5631 5633 5635 5637 5639 5641 5643 5645 5647 5649 5650 5652 5653 5654 5655 5656 5658 5659 5661
5599 5600 5600 5601 5601 5601 5601 5601 5601 5601 5601 5601 5601 5601 5601 5602 5602 5603 5604 5605 5606 5608 5611 5615 5616 5618 5621 5623 5626 5627 5629 5631 5633 5635 5636 5638 5639 5640 5641 5642 5644 5645 5646
5585 5585 5585 5586 5586 5586 5586 5586 5586 5586 5586 5586 5586 5587 5587 5587 5588 5589 5590 5591 5593 5594 5597 5600 5602 5604 5607 5609 5612 5613 5615 5617 5620 5621 5623 5624 5625 5626 5627 5628 5629 5630 5631
5569 5570 5570 5570 5570 5571 5571 5571 5571 5571 5571 5572 5572 5573 5573 5574 5574 5575 5576 5577 5579 5581 5583 5585 5588 5590 5593 5595 5598 5600 5601 5603 5605 5607 5609 5610 5611 5612 5613 5614 5615 5616 5617
5554 5554 5554 5554 5555 5555 5555 5555 5555 5556 5557 5557 5558 5558 5559 5559 5560 5561 5563 5564 5565 5567 5569 5571 5574 5576 5579 5581 5583 5585 5587 5589 5591 5593 5594 5596 5597 5598 5599 5600 5601 5602 5603
5538 5538 5539 5539 5539 5539 5539 5540 5540 5541 5542 5542 5543 5543 5544 5545 5546 5547 5549 5550 5551 5553 5555 5557 5560 5562 5564 5566 5569 5570 5573 5575 5577 5578 5580 5581 5583 5584 5584 5585 5585 5586 5587
5522 5522 5523 5523 5523 5524 5524 5524 5525 5526 5527 5527 5528 5529 5529 5530 5531 5532 5534 5535 5537 5539 5541 5543 5545 5547 5549 5551 5553 5555 5557 5560 5563 5566 5565 5566 5567 5568 5569 5570 5570 5571 5572
5507 5507 5507 5508 5508 5509 5509 5509 5510 5511 5512 5513 5513 5513 5514 5515 5516 5517 5518 5520 5522 5524 5526 5528 5530 5532 5535 5537 5538 5540 5542 5544 5547 5549 5549 5551 5552 5553 5554 5555 5555 5556 5556
5492 5492 5492 5493 5493 5494 5494 5494 5494 5495 5497 5497 5498 5498 5499 5500 5501 5502 5504 5505 5507 5509 5511 5513 5515 5517 5519 5520 5523 5525 5526 5529 5532 5533 5534 5536 5537 5538 5539 5539 5540 5540 5541
5477 5477 5477 5477 5478 5478 5478 5479 5479 5480 5481 5482 5482 5483 5483 5485 5486 5487 5489 5490 5492 5493 5495 5497 5499 5500 5502 5504 5506 5508 5510 5513 5516 5518 5518 5520 5522 5522 5523 5524 5524 5525 5525
5462 5461 5461 5462 5462 5463 5463 5463 5463 5464 5465 5466 5467 5467 5468 5469 5470 5471 5473 5474 5476 5477 5479 5481 5482 5484 5486 5488 5489 5491 5493 5496 5498 5501 5502 5503 5504 5504 5507 5509 5508 5509 5509